Location: Newark
(59.4564°N, 26.6917°E)
Time: 17:26:59
(UTC+00:00)

SR - Pass Details

Date: 23 November 2019
Orbit: 573 x 882 km, 66.7° (Epoch: 12 December)

Event Time Altitude Azimuth Distance (km) Brightness Sun altitude
Rises 13:56:55 0° 240° (WSW) 3,308 ? -3.2°
Reaches altitude 10° 13:59:18 10° 243° (WSW) 2,419 ? -3.5°
Maximum altitude 14:04:56 70° 327° (NNW) 913 ? -4.1°
Drops below altitude 10° 14:10:52 10° 52° (NE) 2,547 ? -4.7°
Enters shadow 14:11:55 - 53° (NE) 2,935 ? -4.8°
Sets 14:13:26 0° 54° (NE) 3,494 - -5.0°
